sat.trackr.live / text

‹ back to catalog

STARLINK-35624

NORAD 66166 · 2025-240W

PAYLOAD ACTIVE UNKNOWN

§ Identity

Operator
Country
US
Launch date
2025-10-25
Launch site
AFWTR
Launch vehicle
Mass (kg)
RCS (m²)

Purposes: comms

External: N2YO · Heavens-Above · Gunter

§ Orbital elements

Epoch: 2026-09-20T05:12:57.428640Z

Period
93.85 min
Inclination
53.1591°
Eccentricity
0.0001466
Mean motion
15.34403887 rev/d
Perigee alt
461.7 km
Apogee alt
463.7 km
Semi-major
6,840.8 km
B*
3.3992e-4
RAAN
234.8332°
Arg perigee
93.4839°
Mean anomaly
266.6331°
Rev number
5,183

§ Raw data

STARLINK-356241 66166U 25240W   26263.21733135  .00011127  00000+0  33992-3 0  99922 66166  53.1591 234.8332 0001466  93.4839 266.6331 15.34403887 51836

JSON: /api/v1/satellites/66166 · /tle

For live sub-satellite position, see the globe view (requires WebGL).

§ Visibility from observer

Set your observer location to see the next 7 days of passes ≥ 10°. The values pass through the URL so the page stays shareable.

No JS? Fill the form by hand. The geolocation button needs JavaScript.